Regional Weather Roundup
Issued by NWS Goodland, KS

Home | Current Version | Previous Version | Graphics & Text | Print | Product List | Glossary On
Versions: 1 2 3 4 5 6 7 8 9 10 11 12 13 14 15 16 17 18 19 20 21 22 23 24 25 26 27 28 29 30 31 32 33 34 35 36 37 38 39 40 41 42 43 44 45 46 47 48 49 50
019
ASUS43 KGLD 261159
RWRGLD

GOODLAND FORECAST AREA HOURLY WEATHER ROUNDUP
NATIONAL WEATHER SERVICE GOODLAND KS
500 AM MST SUN FEB 26 2017

...OFFICIAL OBSERVATIONS...

CITY           SKY/WX    TMP DP  RH WIND       PRES   REMARKS
GOODLAND KS    CLEAR     11   5  77 W7        29.85S
HILL CITY KS   CLEAR     14   9  80 SW3       29.90
IMPERIAL NEB   CLEAR     20  12  71 W7        29.87R
MCCOOK NEB     CLEAR     18  14  84 SW6       29.90R
AKRON CO       CLEAR     15   6  67 N5        29.82R
BURLINGTON CO  CLEAR     12   4  70 NW7       29.83S
LIMON CO       CLEAR      1  -1  91 NW5       29.79S
$$

...UNOFFICIAL OBSERVATIONS...

CITY           SKY/WX    TMP DP  RH WIND       PRES   REMARKS
LENORA KS        N/A     27  32 100 SE6         N/A
SHARON SPRINGS   N/A     15   7  71 NW8         N/A
TRENTON NEB      N/A     19  32 100 NW5         N/A
KIT CARSON CO    N/A      9   2  71 MISG        N/A
YUMA CO        FAIR      12   7  79 W8        29.84S
$$




USA.gov is the U.S. government's official web portal to all federal, state and local government web resources and services.